Date,TemperatureHighF,TemperatureAvgF,TemperatureLowF,DewpointHighF,DewpointAvgF,DewpointLowF,HumidityHigh,HumidityAvg,HumidityLow,PressureMaxIn,PressureMinIn,WindSpeedMaxMPH,WindSpeedAvgMPH,GustSpeedMaxMPH,PrecipitationSumIn
2013-5-1,86.6,67.4,50.4,60.0,55.2,49.0,97,69,36,30.11,30.01,7,1,8,0.00
2013-5-2,78.1,68.1,58.1,61.0,57.2,55.0,91,69,51,30.14,30.02,7,2,14,0.00
2013-5-3,78.0,65.4,59.0,61.0,57.8,55.0,96,79,47,30.02,29.83,9,2,14,0.64
2013-5-4,60.7,56.1,52.2,58.0,52.6,50.0,97,88,69,29.98,29.85,6,1,10,0.64
2013-5-5,54.4,52.8,50.9,53.0,51.4,50.0,97,95,90,29.96,29.87,8,3,15,0.63
2013-5-6,69.7,58.8,51.0,58.0,54.3,50.0,97,86,64,29.92,29.81,11,3,17,0.00
2013-5-7,74.1,61.9,53.9,59.0,55.4,52.0,96,81,54,29.97,29.89,9,2,11,0.01
2013-5-8,80.2,63.1,49.4,64.0,55.5,48.0,98,79,41,30.01,29.92,9,1,12,0.12
2013-5-9,80.0,64.7,51.3,66.0,57.6,50.0,98,80,41,30.01,29.89,8,2,13,0.14
2013-5-10,67.6,64.3,59.3,64.0,61.4,57.0,95,90,85,29.91,29.79,5,1,9,0.38
2013-5-11,65.7,55.8,50.1,57.0,49.5,35.0,93,80,54,30.04,29.88,8,2,13,0.07
2013-5-12,60.7,48.8,35.1,38.0,33.9,27.0,96,60,33,30.16,30.05,13,2,21,0.00
2013-5-13,67.7,50.1,32.5,40.0,35.7,31.0,97,64,28,30.22,30.12,12,2,14,0.00
2013-5-14,84.1,65.2,43.1,62.0,50.5,38.0,89,62,44,30.14,29.83,12,4,19,0.00
2013-5-15,85.9,75.6,66.7,63.0,60.0,58.0,76,60,42,29.93,29.83,10,4,21,0.00
2013-5-16,72.6,66.8,60.9,65.0,60.5,54.0,96,81,62,29.95,29.84,7,1,12,0.21
2013-5-17,74.4,65.8,57.3,67.0,62.0,57.0,99,88,66,30.01,29.95,5,1,9,0.01
2013-5-18,82.1,70.2,63.6,69.0,64.8,61.0,94,84,59,30.01,29.91,5,1,7,0.00
2013-5-19,86.7,73.1,57.9,73.0,66.4,57.0,98,81,59,29.95,29.82,7,1,10,0.00
2013-5-20,84.8,76.1,66.9,72.0,69.1,66.0,95,80,58,29.94,29.81,8,3,14,0.00
2013-5-21,80.7,72.3,62.8,68.0,65.0,61.0,96,78,59,29.94,29.76,11,3,23,0.30
2013-5-22,77.5,69.3,61.7,66.0,62.9,59.0,93,80,57,29.78,29.71,11,3,19,0.01
2013-5-23,69.7,62.1,52.2,61.0,56.7,47.0,96,83,65,30.13,29.78,10,2,15,0.05
2013-5-24,71.9,55.2,41.9,49.0,44.6,39.0,92,71,35,30.35,30.13,7,2,12,0.00
2013-5-25,71.1,55.3,39.8,50.0,45.0,39.0,97,72,38,30.38,30.18,9,1,13,0.01
2013-5-26,76.9,62.0,51.1,58.0,53.1,49.0,95,75,48,30.27,30.11,5,1,12,0.07
2013-5-27,83.9,70.4,57.7,66.0,59.2,54.0,94,70,47,30.11,29.90,12,3,19,0.14
2013-5-28,83.8,74.1,63.4,70.0,64.9,61.0,96,75,57,29.98,29.87,13,3,19,0.00
2013-5-29,87.6,75.5,62.1,68.0,63.3,59.0,91,67,46,30.04,29.95,9,2,16,0.00
2013-5-30,84.5,77.7,69.6,71.0,66.8,62.0,83,70,60,30.05,29.93,11,4,18,0.00
2013-5-31,78.1,73.1,66.7,72.0,68.1,65.0,95,84,73,29.98,29.86,11,4,20,0.66